Location: Laguna de la Cañada del Gallo
(40.3974°N, 5.2096°W)
Time: 02:57:58
(UTC+00:00)

SL-16 R/B - Pass Details

Date: 18 April 2024
Orbit: 841 x 845 km, 71.0° (Epoch: 25 May)

Event Time Altitude Azimuth Distance (km) Brightness Sun altitude
Exits shadow 23:23:21 19° 38° (NE) 1,893 4.3 -36.7°
Drops below altitude 10° 23:24:57 10° 32° (NNE) 2,470 5.0 -36.8°
Sets 23:27:27 0° 28° (NNE) 3,410 5.9 -36.9°
